www.pogodaiklimat.ru

Погода и климат >> Архив погоды >> Франция >> Довиль


ПОГОДА в Довиле

  • Прогноз погоды в Довиле
  • Монитор погоды в Довиле

АРХИВ ПОГОДЫ в Довиле

Время (UTC), дата Ветер
(напр.,м/с)
 
Видим.   Явления Облачность Т
(С)
Тd
(С)
f
(%)
Тe
(С)
Тes
(С)
Комфортность P
(гПа)
Po
(гПа)
Тmin
(С)
Tmax
(С)
R
(мм)
R24
(мм)
S
(см)
07 17.06 З 2-2
{3}
19 км н/о +14.5 +11.5 82 +14 +14 1020.9 1003.8
08 17.06 З 2-2
{3}
26 км н/о +15.7 +11.3 75 +16 +16 1020.6 1003.6
09 17.06 З 1-2
{2}
40 км н/о +17.1 +11.8 71 +18 +18 1020.2 1003.3 0
10 17.06 СЗ 2-2
{3}
30 км 9/9 700 м
[]
+18.0 +12.0 68 +19 +20 1019.8 1003.0
11 17.06 С 2-3
{3}
15 км н/о +18.6 +13.7 73 +20 +20 1019.5 1002.7
12 17.06 З 1-2
{3}
2300 м дымка н/о +20.4 +13.8 66 +24 +24 комфорт 1019.0 1002.3 0
13 17.06 С 2-3
{3}
18 км н/о +20.1 +12.6 62 +23 +23 комфорт 1018.7 1002.0
14 17.06 С 2-3
{3}
35 км н/о +21.0 +14.2 65 +25 +25 комфорт 1018.0 1001.4
15 17.06 СЗ 2-3
{3}
50 км н/о +21.3 +13.2 60 +24 +24 комфорт 1017.8 1001.2 0
16 17.06 СЗ 3-3
{6}
29 км н/о +20.6 +13.1 62 +23 +23 комфорт 1017.4 1000.8
17 17.06 С 2-3
{3}
40 км н/о +19.5 +12.0 62 +22 +22 комфорт 1017.4 1000.7
18 17.06 С 2
{5}
45 км 8/0
[]
+19.5 +11.5 60 +22 +22 комфорт 1017.4 1000.7 +12.8 +21.8 0
19 17.06 С 1-2
{3}
30 км н/о +18.5 +11.1 62 +20 +20 1017.3 1000.5
20 17.06 С 1-2
{2}
50 км н/о +15.9 +11.3 74 +17 +17 1017.5 1000.6
21 17.06 С 1-1
{2}
50 км н/о +13.9 +11.4 85 +15 +15 1017.9 1000.8 0
22 17.06 СВ 1-1
{2}
45 км н/о +12.5 +11.1 91 +13 +13 1017.9 1000.8
23 17.06 СВ 1-1
{2}
40 км 10/10
[]
+12.9 +11.1 89 +13 +13 1017.7 1000.6
00 18.06 СВ 1-1
{2}
45 км н/о +12.4 +10.1 86 +13 +13 1017.4 1000.3 0
01 18.06 В 1-1
{1}
30 км н/о +11.5 +10.1 91 +12 +12 1016.9 999.7
02 18.06 СВ 1-2
{2}
45 км н/о +12.1 +9.7 85 +12 +12 1016.3 999.2
03 18.06 СВ 1-2
{2}
45 км 10/0
[]
+12.2 +9.6 84 +13 +13 1015.8 998.7 0
04 18.06 СВ 1-2
{2}
19 км 10/10
[]
+12.4 +9.9 85 +12 +12 1015.2 998.1
05 18.06 СВ 1-2
{3}
45 км н/о +12.7 +9.9 83 +13 +13 1015.2 998.1
06 18.06 В 1
{5}
45 км 9/0
[]
+14.2 +10.4 78 +15 +15 1015.2 998.2 +11.4 +19.8 0
07 18.06 В 2-3
{3}
19 км 9/9
[]
+15.1 +11.5 79 +15 +16 1014.8 997.9
08 18.06 В 2-3
{3}
60 км н/о +17.0 +13.3 79 +18 +18 1014.0 997.2
09 18.06 В 2-3
{3}
900 м 10/0
[]
+20.6 +14.9 70 +24 +24 комфорт 1013.3 996.7 0
10 18.06 В 2-3
{3}
3200 м дымка 10/10
[]
+20.8 +15.3 71 +25 +25 комфорт 1012.8 996.3
11 18.06 В 2-4
{4}
30 км 10/10
[]
+23.3 +15.6 62 +28 +28 душно 1012.3 995.9
12 18.06 ЮВ 2-4
{5}
30 км 9/0
[]
+24.6 +16.1 59 +28 +30 душно 1011.5 995.2 0
13 18.06 ЮВ 2-4
{5}
30 км 10/10
[]
+24.1 +13.9 53 +26 +26 жарко 1011.5 995.1
14 18.06 В 1-2
{4}
50 км 10/10
[]
+24.4 +14.8 55 +27 +27 жарко 1010.8 994.5
15 18.06 ЮВ 2-3
{3}
60 км 10/0
[]
+24.3 +15.2 57 +27 +27 жарко 1010.1 993.8 0
16 18.06 В 1-2
{3}
45 км 10/10
[]
+24.4 +15.9 59 +28 +28 душно 1009.6 993.3
17 18.06 В 2-3
{3}
19 км 10/10
[]
+25.5 +16.6 58 +29 +29 душно 1009.0 992.8
18 18.06 В 1
{6}
50 км н/о +24.8 +16.8 61 +28 +28 жарко 1008.4 992.2 +14.2 +25.8 0
19 18.06 В 1-2
{2}
45 км н/о +22.8 +16.3 67 +27 +27 душно 1008.2 991.8
20 18.06 В 1 50 км 10/10
[]
+21.6 +16.1 71 +25 +25 комфорт 1008.1 991.7
21 18.06 ЮЗ 6-22
{22}
3100 м 10/10 300 м
[]
+16.6 +12.5 77 +16 +16 1009.9 993.1 1 0
22 18.06 В 2 12 км 10/1 1080 м
[]
+16.3 +13.6 84 +16 +16 1007.5 990.8 9
23 18.06 З 3 15 км 10/10 1500 м
[]
+15.8 +14.5 92 +15 +15 1008.2 991.4 0.4
00 19.06 В 1-2
{3}
22 км н/о +15.3 +13.8 91 +16 +16 1007.3 990.5 9 0
01 19.06 ЮВ 1-1
{2}
35 км 9/9 1500 м
[]
+15.0 +13.9 93 +16 +16 1007.0 990.2
02 19.06 ЮЗ 1 30 км 10/10 1500 м
[]
+14.8 +14.0 95 +15 +15 1007.3 990.5
03 19.06 В 1
{5}
18 км 10/10 1000 м
[]
+14.7 +13.9 95 +15 +15 1006.5 989.7 0.4 0
04 19.06 З 4 7000 м 9/5 150 м
[]
+14.8 +14.2 96 +14 +14 1007.6 990.8
05 19.06 З 1-1
{5}
8000 м 10/1 120 м
[]
+14.7 +14.2 97 +16 +16 1008.0 991.2
06 19.06 Ю 2
{5}
2200 м ?/? +14.8 +14.3 97 +15 +15 1007.9 991.1 +14.2 +24.8 0
07 19.06 Ю 2 5000 м 10/6 120 м
[]
+15.5 +15.2 98 +16 +17 1008.4 991.6
08 19.06 З 2-3
{4}
1000 м ?/? +15.2 +14.6 96 +15 +15 1008.7 991.9
09 19.06 З 1-2
{3}
14 км 9/9 200 м
[]
+17.5 +15.5 88 +19 +20 1008.2 991.5 0
10 19.06 ЮЗ 2 15 км 10/10 360 м
[]
+18.5 +15.7 84 +20 +20 1008.7 992.1
11 19.06 СЗ 2 11 км 10/10 240 м
[]
+16.8 +14.6 87 +17 +17 1009.3 992.6
12 19.06 СЗ 2
{6}
16 км 9/9 200 м
[]
+19.3 +15.6 79 +22 +25 комфорт 1009.0 992.4 0
13 19.06 З 3 13 км слаб. дождь 10/9 270 м
[]
+15.9 +13.7 87 +16 +16 1009.8 993.0 0.0
14 19.06 СЗ 2-3
{4}
9000 м 10/10 120 м
[]
+15.6 +14.8 95 +16 +16 1009.8 993.0 1
15 19.06 З 2
{7}
5000 м дождь 10/10 100 м
[]
+15.6 +14.8 95 +15 +15 1010.2 993.4 1 0
16 19.06 З 2 8000 м 10/10 180 м
[]
+16.2 +15.1 93 +16 +16 1010.4 993.6 0.2
17 19.06 З 2 8000 м 10/10 180 м
[]
+16.0 +14.5 91 +16 +16 1010.7 993.9
18 19.06 З 2
{5}
9000 м 10/10 100 м
[]
+16.1 +14.5 90 +16 +16 1011.0 994.2 +14.8 +19.5 0.2 0
19 19.06 ЮЗ 1-2
{2}
10 км н/о +16.1 +14.1 88 +17 +17 1011.1 994.3
20 19.06 штиль 0 3400 м дымка 8/8 570 м
[]
+14.7 +13.6 93 +14 +14 1011.7 994.8
21 19.06 З 1
{3}
5000 м 10/10 200 м
[]
+14.7 +14.1 96 +16 +16 1012.2 995.3 0
22 19.06 З 2 6000 м 10/10 180 м
[]
+14.7 +13.9 95 +14 +14 1012.5 995.6 0.0
23 19.06 З 2 40 км 10/4 330 м
[]
+13.6 +12.2 91 +13 +13 1012.8 995.8
00 20.06 З 3-4
{4}
35 км 10/10 200 м
[]
+13.6 +12.5 93 +13 +13 1013.1 996.1 0.0 0
01 20.06 ЮЗ 2-3
{3}
19 км 10/10 270 м
[]
+13.4 +12.1 92 +13 +13 1013.2 996.2
02 20.06 ЮЗ 2-3
{3}
17 км 10/10 270 м
[]
+12.8 +11.9 94 +12 +12 1013.2 996.2
03 20.06 ЮЗ 2-3
{3}
14 км 10/10 200 м
[]
+13.0 +12.1 94 +12 +12 1013.3 996.3 0
04 20.06 З 2 27 км 10/10 210 м
[]
+13.3 +11.7 90 +13 +13 1013.7 996.7
05 20.06 З 3 19 км 10/10 240 м
[]
+13.3 +11.4 88 +12 +12 1014.2 997.2
06 20.06 З 3
{8}
16 км 10/10 100 м
[]
+12.9 +11.6 92 +12 +12 1014.7 997.6 +12.7 +16.5 0
07 20.06 З 3 19 км 10/10 210 м
[]
+13.2 +11.3 88 +12 +12 1015.2 998.2
08 20.06 З 3 35 км 8/8 360 м
[]
+15.0 +11.9 82 +14 +16 1015.5 998.6
09 20.06 З 3-5
{5}
19 км 9/9 300 м
[]
+14.6 +10.4 76 +14 +15 1016.2 999.2 0
10 20.06 З 3 30 км 8/8 540 м
[]
+14.4 +9.8 74 +14 +16 1016.5 999.5
11 20.06 З 2-5
{5}
19 км н/о +16.0 +11.0 72 +16 +16 1016.7 999.8
12 20.06 З 2-4
{5}
28 км н/о +16.5 +11.4 72 +17 +17 1016.8 999.9 0
13 20.06 З 2-4
{4}
25 км 9/3 800 м
[]
+16.2 +9.6 65 +16 +23 1017.1 1000.2
14 20.06 СЗ 2-4
{4}
40 км 10/1 660 м
[]
+16.3 +9.7 65 +16 +23 1017.1 1000.2
15 20.06 СЗ 2
{6}
50 км 10/10 300 м
[]
+15.6 +11.0 74 +16 +21 1017.2 1000.3 0
16 20.06 З 2-3
{4}
45 км н/о +15.8 +10.8 72 +16 +16 1017.3 1000.4
17 20.06 СЗ 2-3
{4}
45 км н/о +16.8 +11.5 71 +17 +17 1017.5 1000.6
18 20.06 З 2-4
{4}
35 км н/о +16.4 +9.6 64 +17 +17 1017.5 1000.6 +12.8 +17.2 0
19 20.06 СЗ 1-2
{3}
50 км н/о +15.4 +10.4 72 +16 +16 1017.8 1000.8
20 20.06 СЗ 1-1
{2}
50 км н/о +12.9 +10.3 84 +14 +14 1018.3 1001.2
21 20.06 З 1-1
{2}
1400 м дымка н/о +10.0 +8.6 91 +10 +10 1018.9 1001.6 0
22 20.06 Ю 1 14 км 8/8 420 м
[]
+10.1 +9.5 96 +10 +10 1019.3 1002.0
23 20.06 ЮЗ 2-3
{3}
55 км н/о +9.7 +9.1 96 +8 +8 1019.6 1002.3
00 21.06 ЮЗ 1-1
{2}
18 км н/о +9.1 +8.5 96 +9 +9 1020.1 1002.7 0
01 21.06 ЮЗ 2-2
{2}
45 км н/о +9.4 +8.9 97 +8 +8 1020.1 1002.7
02 21.06 ЮЗ 2-2
{3}
18 км н/о +9.7 +9.2 97 +8 +8 1020.3 1002.9
03 21.06 З 1-1
{2}
13 км н/о +9.3 +8.8 97 +9 +9 1020.2 1002.8 0.2 0
04 21.06 ЮЗ 1-2
{3}
6000 м 9/9 240 м
[]
+9.5 +9.0 97 +9 +9 1020.5 1003.1
05 21.06 З 1-2
{2}
10 км н/о +10.5 +10.2 98 +10 +10 1020.5 1003.2
06 21.06 З 2
{4}
14 км 10/10 100 м
[]
+12.2 +11.7 97 +11 +11 1020.8 1003.6 +8.6 +16.6 0
07 21.06 З 1-2
{2}
19 км 10/10 180 м
[]
+13.2 +11.9 92 +13 +13 1021.2 1004.1
08 21.06 СЗ 2-3
{3}
30 км 8/8 360 м
[]
+15.2 +12.0 81 +15 +17 1021.4 1004.4
09 21.06 З 2-3
{4}
40 км 9/9 300 м
[]
+15.1 +11.3 78 +15 +16 1021.5 1004.5 0
10 21.06 СЗ 2-3
{4}
19 км 9/9 570 м
[]
+15.8 +10.1 69 +16 +17 1021.8 1004.8
11 21.06 З 2-3
{4}
19 км н/о +16.6 +11.7 73 +17 +17 1022.0 1005.0
12 21.06 СЗ 2-4
{5}
24 км 9/9 600 м
[]
+16.3 +10.6 69 +16 +18 1022.2 1005.2 0
13 21.06 С 2-3
{3}
35 км н/о +17.2 +10.1 63 +18 +18 1022.0 1005.1
10 22.06 В 1-2
{2}
600 м н/о +20.1 +10.5 54 +23 +23 комфорт 1021.0 1004.2
11 22.06 Ю 1-2
{3}
1200 м дымка н/о +20.9 +8.5 45 +24 +24 комфорт 1020.7 1004.0
13 22.06 СВ 2-4
{4}
45 км н/о +20.7 +10.2 51 +23 +23 комфорт 1019.7 1003.0
14 22.06 С 2-4
{4}
40 км н/о +21.4 +11.1 52 +23 +23 комфорт 1019.1 1002.5
15 22.06 С 3-4
{4}
45 км н/о +21.5 +11.8 54 +24 +24 комфорт 1018.9 1002.3
16 22.06 С 3-5
{5}
19 км н/о +21.1 +12.0 56 +23 +23 комфорт 1018.3 1001.7
17 22.06 СВ 3-5
{5}
20 км н/о +20.5 +11.7 57 +23 +23 комфорт 1018.1 1001.4
18 22.06 СВ 2
{8}
35 км н/о +19.7 +10.9 57 +22 +22 комфорт 1017.9 1001.2 +12.0 +21.9 0
19 22.06 СВ 2-3
{4}
40 км н/о +18.2 +10.8 62 +19 +19 1018.2 1001.4
20 22.06 СВ 2-2
{4}
60 км н/о +16.4 +10.7 69 +17 +17 1018.7 1001.8
21 22.06 СВ 1-2
{3}
50 км н/о +14.9 +10.3 74 +15 +15 1018.9 1001.9 0
22 22.06 СВ 1-2
{2}
40 км н/о +14.2 +10.8 80 +15 +15 1018.4 1001.4
23 22.06 СВ 1-2
{2}
30 км н/о +13.6 +11.1 85 +14 +14 1018.4 1001.3
00 23.06 СВ 1-2
{2}
18 км н/о +13.6 +11.5 87 +14 +14 1017.9 1000.8 0
01 23.06 В 1-2
{2}
19 км н/о +13.7 +11.6 87 +14 +14 1017.5 1000.4
02 23.06 В 1-2
{3}
19 км н/о +13.4 +11.5 88 +14 +14 1017.3 1000.2
03 23.06 В 2-3
{3}
19 км н/о +13.6 +11.5 87 +13 +13 1016.9 999.8 0
04 23.06 В 2-3
{3}
17 км н/о +13.9 +11.8 87 +14 +14 1016.6 999.6
05 23.06 В 2-3
{3}
17 км н/о +14.6 +11.9 84 +15 +15 1016.3 999.3
06 23.06 В 2
{8}
12 км н/о +15.9 +12.5 80 +16 +16 1016.0 999.1 +13.2 +19.7 0
07 23.06 В 2-4
{4}
12 км н/о +18.4 +13.5 73 +19 +19 1015.5 998.8
08 23.06 В 2-3
{3}
7000 м н/о +21.5 +15.3 68 +25 +25 комфорт 1015.5 998.9
09 23.06 В 2
{7}
1700 м дымка 10/0
[]
+22.3 +15.2 64 +26 +26 жарко 1015.1 998.6 0
10 23.06 В 2-3
{4}
17 км 10/10
[]
+22.1 +15.2 65 +26 +26 душно 1014.7 998.2
11 23.06 В 2 18 км н/о +22.9 +15.5 63 +27 +27 душно 1014.7 998.2
12 23.06 В 3
{9}
19 км 8/0
[]
+23.8 +15.8 61 +27 +30 жарко 1013.7 997.3 0
13 23.06 ЮВ 2 19 км 9/6 1300 м
[]
+25.5 +16.4 57 +29 +33 душно 1013.2 996.9
14 23.06 ЮВ 2 30 км 10/10
[]
+25.1 +13.9 50 +27 +27 жарко 1012.9 996.6
15 23.06 ЮВ 2-4
{6}
35 км 10/0
[]
+26.0 +15.1 51 +29 +29 душно 1012.8 996.5 0
16 23.06 ЮВ 2 30 км 10/10
[]
+25.7 +15.7 54 +29 +29 душно 1012.5 996.2
17 23.06 ЮВ 2-4
{5}
35 км 10/10
[]
+24.9 +15.8 57 +28 +28 жарко 1012.4 996.1
18 23.06 ЮВ 1
{6}
40 км 10/0
[]
+25.1 +17.0 61 +29 +29 душно 1012.5 996.2 +15.9 +26.5 0
19 23.06 ЮВ 1-3
{3}
19 км 10/10
[]
+24.0 +16.8 64 +28 +28 душно 1012.8 996.4
20 23.06 ЮВ 1 60 км 10/10
[]
+23.3 +16.6 66 +28 +28 душно 1013.2 996.8
21 23.06 ЮВ 1-2
{3}
60 км 10/0
[]
+23.0 +16.3 66 +28 +28 душно 1013.4 997.0 0
22 23.06 ЮВ 1 60 км 10/10
[]
+22.8 +16.1 66 +27 +27 душно 1013.4 997.0
23 23.06 ЮВ 1 60 км 10/10
[]
+22.5 +16.1 67 +27 +27 душно 1013.4 996.9
00 24.06 ЮВ 1
{7}
60 км 9/0
[]
+22.1 +15.7 67 +26 +26 душно 1013.5 997.0 0
01 24.06 Ю 2 60 км 10/10
[]
+21.2 +15.7 71 +24 +24 комфорт 1013.5 997.0
02 24.06 Ю 2 60 км 10/10
[]
+20.7 +15.7 73 +24 +24 комфорт 1013.8 997.2
03 24.06 Ю 2
{6}
60 км 9/0
[]
+19.9 +15.5 76 +23 +23 комфорт 1013.7 997.1 0
05 24.06 ЮЗ 2 50 км 10/10
[]
+19.5 +16.3 82 +22 +22 комфорт 1015.2 998.5
06 24.06 З 2
{6}
35 км 10/0
[]
+19.3 +16.3 83 +22 +22 комфорт 1015.9 999.2 +17.5 +25.1 0
07 24.06 З 2 19 км 10/10
[]
+18.7 +16.1 85 +20 +20 1016.7 1000.0
08 24.06 СЗ 1 18 км 9/1 270 м
[]
+18.2 +15.6 85 +20 +24 1016.6 999.8 0.0

 

Местоположение метеостанции Довиль (Франция): широта 49.37 долгота 0.17 высота над уровнем моря 147 м.

В архиве по умолчанию представлена погода в Довиле за последнюю неделю. Архивные данные за месяц целиком и за предыдущие месяцы, начиная с января 2011 года, Вы можете получить, выбрав интересующий диапазон дат из раскрывающегося списка и нажав кнопку "Ввод!".


*Определитесь, кто Вы:
робот инопланетянин человек

Внимание! Время в таблицах - всемирное. Для получения местного времени необходимо прибавить поправку, которая равна 1 ч.

Смотрите также архив погоды в соседних городах и на ближайших метеорологических станциях:

Погода в Гавре (Франция) (16 км)
Погода в Гавр аэропорту (Франция) (19 км)
Погода в Кане (Франция) (50 км)
Погода в Порт-ан-Бессене (Франция) (68 км)
Погода в Руанском (Франция) (73 км)
Погода в Эврё (Франция) (86 км)
Погода в Дьеппе (Франция) (91 км)
Погода в Тусю-ле-Нобле (Франция) (95 км)
Погода в Алансоне (Франция) (105 км)
Погода в Барфлере (Франция) (110 км)

Пояснения к столбцам:

Ветер - указаны скорость ветра в м/с - средняя за 10 мин, порывы в срок и между сроками (в фигурных скобках) и направление, откуда дует ветер: С - северный, СВ - северо-восточный, В - восточный, ЮВ - юго-восточный, Ю - южный, ЮЗ - юго-западный, З - западный, СЗ - северо-западный.
Видимость - горизонтальная дальность видимости в метрах или километрах. При видимости от 1 до 10 км при отсутствии осадков обычно наблюдается дымка, при ухудшении видимости до 1 км и менее - туман. В сухую погоду видимость может ухудшаться дымом, пылью или мглою.
Явления - указаны атмосферные явления, наблюдавшиеся в срок или в последний час перед сроком; фигурными скобками обозначены явления, наблюдавшиеся между сроками (за 1-3 часа до срока); квадратными скобками обозначены град или гололедные отложения с указанием их диаметра в мм.
Облачность - указаны через наклонную черту общая и нижняя облачность в баллах и высота нижней границы облаков в метрах; квадратными скобками обозначены формы облаков: Ci - перистые, Cs - перисто-слоистые, Cc - перисто-кучевые, Ac - высококучевые, As - высокослоистые, Sc - слоисто-кучевые, Ns - слоисто-дождевые, Cu - кучевые, Cb - кучево-дождевые. Подробнее классификацию облаков см. в Атласе облаков (PDF).
T - Температура воздуха - температура, измеренная на высоте 2 м над землей.
Td - Температура точки росы - температура, при понижении до которой содержащийся в воздухе водяной пар достигнет насыщения.
f - Относительная влажность воздуха - влажноcть воздуха, измеренная на высоте 2 м над землей.
Te - Эффективная температура - температура, которую ощущает одетый по сезону человек в тени. Характеристика душности погоды. При расчете учитывается влияние влажности воздуха и скорости ветра на теплоощущения человека.
Tes - Эффективная температура на солнце - температура, которую ощущает человек, с поправкой на солнечный нагрев. Характеристика знойности погоды. Зависит от высоты солнца над горизонтом, облачности и скорости ветра. Ночью, в пасмурную погоду, а также при ветре 12 м/с и более поправка равна нулю.
P - Атмосферное давление - приведенное к уровню моря атмосферное давление.
Po - Атмосферное давление - измеренное на уровне метеостанции атмосферное давление.
Tmin - Минимальная температура - минимум температуры воздуха на высоте 2 м над землей.
Tmax - Максимальная температура - максимум температуры воздуха на высоте 2 м над землей.
R - Количество осадков - Количество выпавших осадков за период времени, мм. При наведении курсора мыши на число - период времени, за который выпало указанное количество осадков.
R24 - Количество осадков - Количество выпавших осадков за 24 часа, мм.
S - Снежный покров - Высота снежного покрова, см. При наведении курсора мыши на число - состояние снежного покрова и степень покрытия местности в баллах.